Find Starlink 37997

NORAD ID: 69682 Int'l Des: 2026-145 Owner: SPXS Country: US Constellation: starlink operational
LEOCIRCULARRETROGRADE

現在のビュー

3D地球を読み込み中...

About Starlink 37997

Starlink 37997 (NORAD 69682) is a starlink constellation satellite (v2 mini) launched Jun 25, 2026 by SPXS of US. It operates in LEO, CIRCULAR, RETROGRADE orbit with a mass of 575.00 kg.

次回通過

Passes for default location (London). Set your location on the main map for personalized predictions.

高度履歴

Loading altitude history...

軌道要素

1 69682U 26145F 26225.14735904 .00008534 00000-0 26645-3 0 9995
2 69682 97.2837 72.3277 0001727 103.9051 256.2384 15.33435983 8915
Epoch: Aug 13, 2026 • Age: 12 hours

現在のステータス

高度 487.0 km
遠地点 / 近地点 N/A
速度 7.62 km/s
衛星直下点 -53.08°S, 48.28°E
打ち上げ日 Jun 25, 2026
運用期間 0.1 years
タイプ internet

技術仕様

分類 Payload
質量 575.00 kg
乾燥質量 530.00 kg
総質量 575.00 kg
長さ 0.30 m
直径 4.10 m
スパン 29.00 m
形状 Box + pan
製造者 SPXS
バスタイプ Starlink V2MO
フェーズステータス In Orbit
所有者/国 SPXS/US

Most Searched